GFSNGP_prec_precacc_279.txt.gz
Total_Precipitation_Accumulation
0.92 0.40 0.48 0.78 0.79 0.81 1.49 1.30 1.68 1.12 0.71 0.75 1.04 0.55 0.21 0.15 0.11 0.16 0.20 0.21 0.30 0.40 0.50 0.53 0.57 0.60 0.79 0.85 1.53 2.19 2.04 1.89 2.14 2.17 2.24 2.25 2.14 1.75 1.49 1.52 1.51 1.49 1.52 1.75
1.52 0.54 0.73 0.97 0.90 0.59 0.82 0.69 0.68 0.42 0.42 0.44 0.69 0.66 0.39 0.26 0.17 0.22 0.25 0.24 0.26 0.32 0.36 0.42 0.54 0.71 0.72 0.72 1.17 1.67 1.98 2.38 2.03 2.39 2.40 1.96 1.99 1.79 1.61 1.54 1.49 1.62 1.46 1.59
2.18 0.69 0.99 1.70 0.88 0.62 0.53 0.30 0.26 0.34 0.27 0.38 0.66 0.76 0.67 0.49 0.30 0.30 0.28 0.25 0.20 0.27 0.30 0.37 0.41 0.34 0.40 0.50 0.64 0.85 1.58 2.59 2.57 2.85 3.86 2.89 2.01 1.99 1.94 2.18 2.05 1.87 2.03 1.98
2.51 1.28 2.36 1.63 0.46 0.44 0.52 0.40 0.19 0.24 0.28 0.48 0.57 0.47 0.64 0.62 0.61 0.40 0.34 0.30 0.22 0.22 0.29 0.32 0.28 0.23 0.20 0.21 0.30 0.39 0.44 1.07 2.19 2.52 3.37 4.25 3.28 2.73 2.83 2.64 2.62 2.27 2.14 2.11
2.45 1.75 1.37 0.43 0.32 0.40 0.87 0.79 0.41 0.40 0.54 0.55 0.41 0.23 0.59 0.63 0.62 0.86 0.67 0.51 0.56 0.43 0.36 0.36 0.34 0.39 0.32 0.25 0.24 0.27 0.30 0.54 0.90 1.47 2.28 2.97 3.69 3.85 3.58 3.48 3.09 2.86 2.41 2.20
2.63 2.13 1.26 0.29 0.13 0.28 0.61 1.50 1.02 0.77 0.54 0.47 0.39 0.51 0.79 0.77 0.63 0.72 1.02 0.81 0.60 0.56 0.37 0.49 0.56 0.51 0.72 0.50 0.39 0.43 0.47 0.48 0.57 0.78 1.11 1.67 2.31 2.69 2.68 2.52 2.65 2.56 2.56 2.26
2.22 2.09 0.67 0.11 0.09 0.22 1.43 1.60 1.11 1.34 0.90 0.79 0.79 0.84 0.93 0.96 0.85 0.69 0.89 1.28 0.93 0.77 0.62 0.65 0.84 0.64 0.76 1.24 1.12 0.93 0.89 0.86 0.92 0.99 1.04 1.16 1.44 1.64 1.72 1.82 1.84 1.83 1.86 1.82
2.16 2.55 1.13 0.33 0.48 1.02 1.37 1.24 1.18 1.27 1.40 1.61 1.52 1.42 1.28 1.05 0.74 0.62 0.57 0.78 1.28 1.12 1.04 0.90 0.97 1.04 0.90 1.16 1.75 1.65 1.38 1.32 1.26 1.12 1.25 1.48 1.64 1.74 1.68 1.68 1.62 1.47 1.39 1.42
1.71 1.41 0.74 0.40 0.52 0.98 1.01 1.07 1.06 1.10 1.21 1.45 1.36 1.18 0.97 0.60 0.40 0.37 0.45 0.48 0.60 1.02 1.18 1.05 0.87 1.08 1.17 1.25 1.40 1.62 1.67 1.66 1.70 1.72 1.80 1.92 2.00 1.99 1.91 1.83 1.61 1.50 1.37 1.42
1.20 1.12 0.58 0.44 0.40 0.48 0.56 0.74 0.83 0.77 0.74 0.66 0.67 0.68 0.63 0.46 0.31 0.24 0.27 0.32 0.37 0.47 0.78 1.00 1.09 1.00 1.08 1.31 1.30 1.32 1.49 1.60 1.74 1.92 2.09 2.10 2.06 2.14 2.03 2.01 1.95 1.80 1.67 1.74
1.32 1.65 0.83 0.71 0.84 0.83 0.64 0.62 0.52 0.48 0.45 0.42 0.45 0.46 0.37 0.36 0.32 0.31 0.32 0.36 0.48 0.57 0.59 0.76 0.81 0.94 1.19 1.39 1.49 1.41 1.38 1.70 1.81 1.71 1.72 1.85 1.95 1.93 1.77 1.97 1.84 1.71 1.66 1.64
1.49 1.46 1.43 1.41 1.14 0.84 0.77 0.65 0.46 0.28 0.25 0.28 0.26 0.23 0.16 0.14 0.11 0.15 0.23 0.23 0.20 0.31 0.52 0.69 0.64 0.63 0.72 0.88 1.18 1.48 1.77 1.85 2.19 2.29 2.00 1.86 1.91 2.18 2.32 2.27 2.25 2.02 1.80 1.58
1.10 1.03 0.87 0.84 0.71 0.59 0.55 0.52 0.56 0.54 0.36 0.25 0.14 0.07 0.09 0.13 0.23 0.31 0.18 0.09 0.10 0.22 0.40 0.55 0.63 0.66 0.60 0.59 0.63 0.68 0.89 1.16 1.61 2.01 2.11 1.90 1.85 1.87 2.04 2.49 2.40 2.26 2.24 2.22
0.69 0.69 0.67 0.49 0.38 0.33 0.33 0.41 0.52 0.54 0.59 0.60 0.41 0.26 0.31 0.44 0.39 0.28 0.22 0.15 0.16 0.27 0.42 0.51 0.60 0.76 0.76 0.70 0.67 0.69 0.78 1.04 1.05 1.11 1.28 1.56 1.65 1.69 1.57 1.64 1.69 1.84 1.80 1.45
0.27 0.24 0.32 0.22 0.18 0.14 0.10 0.11 0.23 0.50 0.63 0.83 1.11 1.18 0.84 0.60 0.44 0.42 0.38 0.32 0.28 0.30 0.37 0.39 0.47 0.61 0.61 0.59 0.67 0.75 0.78 0.89 1.03 1.15 1.26 1.37 1.25 1.33 1.44 1.42 1.43 1.51 1.43 1.38
0.11 0.09 0.08 0.07 0.14 0.27 0.27 0.16 0.20 0.50 0.77 0.81 0.75 0.75 0.75 0.69 0.64 0.55 0.51 0.45 0.47 0.50 0.52 0.48 0.52 0.65 0.64 0.69 0.87 1.09 1.26 1.58 1.41 1.26 1.31 1.27 1.16 1.10 1.12 1.15 1.16 1.11 1.04 1.03
0.24 0.17 0.13 0.13 0.15 0.21 0.36 0.35 0.47 0.53 0.53 0.56 0.69 0.72 0.63 0.72 0.86 0.87 0.74 0.64 0.55 0.57 0.59 0.73 1.07 1.13 1.25 1.32 1.21 1.17 1.13 1.25 1.38 1.22 1.06 0.95 0.91 0.88 0.85 0.84 0.83 0.81 0.85 0.76
0.28 0.51 0.35 0.30 0.24 0.36 0.43 0.50 0.56 0.58 0.77 0.78 0.66 0.88 0.88 0.80 0.91 1.13 1.23 1.12 1.21 1.51 1.72 1.66 1.64 1.56 1.51 1.52 1.32 1.08 0.90 0.89 0.88 1.04 1.20 1.05 0.92 0.80 0.82 0.85 0.84 0.83 0.90 1.07
0.31 0.51 0.40 0.45 0.40 0.43 0.40 0.38 0.54 0.71 1.00 0.85 0.85 0.97 1.07 1.27 1.44 1.70 1.90 1.73 1.73 1.75 2.31 1.94 1.58 1.27 1.22 1.41 1.17 1.04 0.84 0.73 0.68 0.72 0.90 1.18 1.17 0.97 1.00 1.03 1.07 1.12 1.14 1.25
0.69 0.60 0.58 0.48 0.43 0.42 0.49 0.75 0.90 1.09 1.23 1.05 0.99 0.99 1.12 1.43 1.54 1.58 1.46 1.49 1.45 1.35 1.29 1.09 1.00 0.96 1.07 1.19 0.94 0.84 0.80 0.70 0.63 0.65 0.76 1.02 1.14 1.15 1.08 1.05 1.06 1.13 1.20 1.20
0.68 0.74 0.82 0.82 0.95 1.06 1.09 1.36 1.38 1.33 1.37 1.18 0.86 0.91 0.90 1.01 0.96 0.98 0.78 0.90 1.25 0.91 0.75 0.67 0.53 0.56 0.61 0.81 0.88 0.79 0.81 0.79 0.78 0.74 0.77 0.79 1.04 1.11 1.12 1.08 1.05 1.03 1.06 1.01
0.84 0.88 1.10 1.19 1.07 1.20 1.25 1.25 1.27 1.26 1.29 1.05 0.79 0.69 0.59 0.66 0.62 0.61 0.63 0.68 0.89 0.62 0.48 0.45 0.42 0.41 0.44 0.53 0.57 0.71 0.74 0.73 0.72 0.65 0.75 0.79 0.90 1.05 1.10 0.98 0.96 0.98 0.90 0.93
0.88 0.86 0.85 0.91 0.99 1.15 1.01 0.93 1.19 1.33 1.21 1.04 0.70 0.64 0.56 0.53 0.47 0.38 0.52 0.61 0.47 0.46 0.41 0.48 0.47 0.41 0.41 0.41 0.45 0.53 0.66 0.75 0.81 0.79 0.80 0.79 0.83 0.92 1.03 1.01 0.87 0.83 0.92 0.87
0.69 0.69 0.69 0.75 0.68 0.59 0.66 0.91 0.90 1.01 0.96 0.69 0.38 0.34 0.29 0.29 0.38 0.34 0.33 0.38 0.37 0.37 0.38 0.40 0.34 0.33 0.30 0.39 0.46 0.50 0.55 0.60 0.62 0.66 0.68 0.68 0.72 0.73 0.76 0.83 0.79 0.68 0.75 0.75
0.49 0.46 0.44 0.41 0.32 0.38 0.40 0.47 0.49 0.61 0.48 0.30 0.23 0.20 0.16 0.15 0.27 0.30 0.22 0.25 0.29 0.28 0.39 0.43 0.36 0.37 0.41 0.43 0.42 0.42 0.47 0.48 0.45 0.44 0.49 0.54 0.59 0.62 0.68 0.66 0.66 0.68 0.69 0.70
0.34 0.26 0.24 0.19 0.19 0.17 0.19 0.19 0.27 0.33 0.26 0.24 0.27 0.26 0.25 0.20 0.18 0.19 0.20 0.23 0.24 0.26 0.36 0.47 0.40 0.37 0.35 0.33 0.32 0.28 0.31 0.36 0.39 0.45 0.43 0.46 0.49 0.52 0.55 0.56 0.56 0.57 0.62 0.67
0.27 0.20 0.16 0.16 0.17 0.16 0.16 0.17 0.22 0.27 0.25 0.26 0.32 0.30 0.23 0.23 0.23 0.20 0.25 0.29 0.33 0.36 0.36 0.39 0.37 0.37 0.31 0.29 0.28 0.27 0.28 0.33 0.36 0.37 0.39 0.42 0.42 0.46 0.46 0.47 0.50 0.55 0.57 0.59

GFSNGP_prec_precacc_282.txt.gz
Total_Precipitation_Accumulation
0.92 0.40 0.48 0.78 0.79 0.81 1.49 1.30 1.68 1.12 0.71 0.75 1.04 0.55 0.21 0.15 0.11 0.16 0.20 0.21 0.30 0.40 0.50 0.53 0.57 0.60 0.79 0.85 1.53 2.19 2.04 1.89 2.14 2.17 2.24 2.25 2.14 1.75 1.49 1.52 1.51 1.49 1.52 1.75
1.52 0.54 0.73 0.97 0.90 0.59 0.82 0.69 0.68 0.42 0.42 0.44 0.69 0.66 0.39 0.26 0.17 0.22 0.25 0.24 0.26 0.32 0.36 0.42 0.54 0.71 0.72 0.72 1.17 1.67 1.98 2.38 2.03 2.39 2.40 1.96 1.99 1.79 1.61 1.54 1.49 1.62 1.46 1.59
2.18 0.69 0.99 1.70 0.88 0.62 0.53 0.30 0.26 0.34 0.27 0.38 0.66 0.76 0.67 0.49 0.30 0.30 0.28 0.25 0.20 0.27 0.30 0.37 0.41 0.34 0.40 0.50 0.64 0.85 1.58 2.59 2.57 2.85 3.86 2.89 2.01 1.99 1.94 2.18 2.05 1.87 2.03 1.98
2.51 1.28 2.36 1.63 0.46 0.44 0.52 0.40 0.19 0.24 0.28 0.48 0.57 0.47 0.64 0.62 0.61 0.40 0.34 0.30 0.22 0.22 0.29 0.32 0.28 0.23 0.20 0.21 0.30 0.39 0.44 1.07 2.19 2.52 3.37 4.25 3.28 2.73 2.83 2.64 2.62 2.27 2.14 2.11
2.45 1.75 1.37 0.43 0.32 0.40 0.87 0.79 0.41 0.40 0.54 0.55 0.41 0.23 0.59 0.63 0.62 0.86 0.67 0.51 0.56 0.43 0.36 0.36 0.34 0.39 0.32 0.25 0.24 0.27 0.30 0.54 0.90 1.47 2.28 2.97 3.69 3.85 3.58 3.48 3.09 2.86 2.41 2.20
2.63 2.13 1.26 0.29 0.13 0.28 0.61 1.50 1.02 0.77 0.54 0.47 0.39 0.51 0.79 0.77 0.63 0.72 1.02 0.81 0.60 0.56 0.37 0.49 0.56 0.51 0.72 0.50 0.39 0.43 0.47 0.48 0.57 0.78 1.11 1.67 2.31 2.69 2.68 2.52 2.65 2.56 2.56 2.26
2.22 2.09 0.67 0.11 0.09 0.22 1.43 1.60 1.11 1.34 0.90 0.79 0.79 0.84 0.93 0.96 0.85 0.69 0.89 1.28 0.93 0.77 0.62 0.65 0.84 0.64 0.76 1.24 1.12 0.93 0.89 0.86 0.92 0.99 1.04 1.16 1.44 1.64 1.72 1.82 1.84 1.83 1.86 1.82
2.16 2.55 1.13 0.33 0.48 1.02 1.37 1.24 1.18 1.27 1.40 1.61 1.52 1.42 1.28 1.05 0.74 0.62 0.57 0.78 1.28 1.12 1.04 0.90 0.97 1.04 0.90 1.16 1.75 1.65 1.38 1.32 1.26 1.12 1.25 1.48 1.64 1.74 1.68 1.68 1.62 1.47 1.39 1.42
1.71 1.41 0.74 0.40 0.52 0.98 1.01 1.07 1.06 1.10 1.21 1.45 1.36 1.18 0.97 0.60 0.40 0.37 0.45 0.48 0.60 1.02 1.18 1.05 0.87 1.08 1.17 1.25 1.40 1.62 1.67 1.66 1.70 1.72 1.80 1.92 2.00 1.99 1.91 1.83 1.61 1.50 1.37 1.42
1.20 1.12 0.58 0.44 0.40 0.48 0.56 0.74 0.83 0.77 0.74 0.66 0.67 0.68 0.63 0.46 0.31 0.24 0.27 0.32 0.37 0.47 0.78 1.00 1.09 1.00 1.08 1.31 1.30 1.32 1.49 1.60 1.74 1.92 2.09 2.10 2.06 2.14 2.03 2.01 1.95 1.80 1.68 1.75
1.32 1.65 0.83 0.71 0.84 0.83 0.64 0.62 0.52 0.48 0.45 0.42 0.45 0.46 0.37 0.36 0.32 0.31 0.32 0.36 0.48 0.57 0.59 0.76 0.81 0.94 1.19 1.39 1.49 1.41 1.38 1.70 1.81 1.71 1.72 1.85 1.95 1.93 1.77 1.97 1.84 1.71 1.66 1.64
1.49 1.46 1.43 1.41 1.14 0.84 0.77 0.65 0.46 0.28 0.25 0.28 0.26 0.23 0.16 0.14 0.11 0.15 0.23 0.23 0.20 0.31 0.52 0.69 0.64 0.63 0.72 0.88 1.18 1.48 1.77 1.85 2.19 2.29 2.00 1.86 1.91 2.18 2.32 2.27 2.25 2.02 1.80 1.59
1.10 1.03 0.87 0.84 0.71 0.59 0.55 0.52 0.56 0.54 0.36 0.25 0.14 0.07 0.09 0.13 0.23 0.31 0.18 0.09 0.10 0.22 0.40 0.55 0.63 0.66 0.60 0.59 0.63 0.68 0.89 1.16 1.61 2.01 2.11 1.90 1.85 1.87 2.04 2.49 2.40 2.26 2.24 2.22
0.69 0.69 0.67 0.49 0.38 0.33 0.33 0.41 0.52 0.54 0.59 0.60 0.41 0.26 0.31 0.44 0.39 0.28 0.22 0.15 0.16 0.27 0.42 0.51 0.60 0.76 0.76 0.70 0.67 0.69 0.78 1.04 1.05 1.11 1.28 1.56 1.65 1.69 1.57 1.64 1.69 1.84 1.80 1.45
0.27 0.24 0.32 0.22 0.18 0.14 0.10 0.11 0.23 0.50 0.63 0.83 1.11 1.18 0.84 0.60 0.44 0.42 0.38 0.32 0.28 0.30 0.37 0.39 0.47 0.61 0.61 0.59 0.67 0.75 0.78 0.89 1.03 1.15 1.26 1.37 1.25 1.33 1.44 1.42 1.43 1.51 1.43 1.39
0.11 0.09 0.08 0.07 0.14 0.27 0.27 0.16 0.20 0.50 0.77 0.81 0.75 0.75 0.75 0.69 0.64 0.55 0.51 0.45 0.47 0.50 0.52 0.48 0.52 0.65 0.64 0.69 0.87 1.09 1.26 1.58 1.41 1.26 1.31 1.27 1.16 1.10 1.12 1.15 1.16 1.11 1.04 1.04
0.24 0.17 0.13 0.13 0.15 0.21 0.36 0.35 0.47 0.53 0.53 0.56 0.69 0.72 0.63 0.72 0.86 0.87 0.74 0.64 0.55 0.57 0.59 0.73 1.07 1.13 1.25 1.32 1.21 1.17 1.13 1.25 1.38 1.22 1.06 0.95 0.91 0.88 0.85 0.84 0.83 0.82 0.85 0.76
0.28 0.51 0.35 0.30 0.24 0.36 0.43 0.50 0.56 0.58 0.77 0.78 0.66 0.88 0.88 0.80 0.91 1.13 1.23 1.12 1.21 1.51 1.72 1.66 1.64 1.56 1.51 1.52 1.32 1.08 0.90 0.89 0.88 1.04 1.20 1.05 0.92 0.80 0.82 0.85 0.84 0.83 0.91 1.07
0.31 0.51 0.40 0.45 0.40 0.43 0.40 0.38 0.54 0.71 1.00 0.85 0.85 0.97 1.07 1.27 1.44 1.70 1.90 1.73 1.73 1.75 2.31 1.94 1.58 1.27 1.22 1.41 1.17 1.04 0.84 0.73 0.68 0.72 0.90 1.18 1.17 0.97 1.00 1.03 1.07 1.12 1.15 1.26
0.69 0.60 0.58 0.48 0.43 0.42 0.49 0.75 0.90 1.09 1.23 1.05 0.99 0.99 1.12 1.43 1.54 1.58 1.46 1.49 1.45 1.35 1.29 1.09 1.00 0.96 1.07 1.19 0.94 0.84 0.80 0.70 0.63 0.65 0.76 1.02 1.14 1.15 1.08 1.05 1.06 1.13 1.21 1.20
0.68 0.74 0.82 0.82 0.95 1.06 1.09 1.36 1.38 1.33 1.37 1.18 0.86 0.91 0.90 1.01 0.96 0.98 0.78 0.90 1.25 0.91 0.75 0.67 0.53 0.56 0.61 0.81 0.88 0.79 0.81 0.79 0.78 0.74 0.77 0.79 1.04 1.11 1.12 1.08 1.06 1.04 1.07 1.02
0.84 0.88 1.10 1.19 1.07 1.20 1.25 1.25 1.27 1.26 1.29 1.05 0.79 0.69 0.59 0.66 0.62 0.61 0.63 0.68 0.89 0.62 0.48 0.45 0.42 0.41 0.44 0.53 0.57 0.71 0.74 0.73 0.72 0.65 0.75 0.79 0.90 1.05 1.10 0.98 0.97 1.00 0.91 0.94
0.88 0.86 0.85 0.91 0.99 1.15 1.01 0.93 1.19 1.33 1.21 1.04 0.70 0.64 0.56 0.53 0.47 0.38 0.52 0.61 0.47 0.46 0.41 0.48 0.47 0.41 0.41 0.41 0.45 0.53 0.66 0.75 0.81 0.79 0.80 0.79 0.83 0.92 1.03 1.01 0.88 0.85 0.94 0.88
0.69 0.69 0.69 0.75 0.68 0.59 0.66 0.91 0.90 1.01 0.96 0.69 0.38 0.34 0.29 0.29 0.38 0.34 0.33 0.38 0.37 0.37 0.38 0.40 0.34 0.33 0.30 0.39 0.46 0.50 0.55 0.60 0.62 0.66 0.68 0.68 0.72 0.73 0.76 0.83 0.79 0.69 0.76 0.76
0.49 0.46 0.44 0.41 0.32 0.38 0.40 0.47 0.49 0.61 0.48 0.30 0.23 0.20 0.16 0.15 0.27 0.30 0.22 0.25 0.29 0.28 0.39 0.43 0.36 0.37 0.41 0.43 0.42 0.42 0.47 0.48 0.45 0.44 0.49 0.54 0.59 0.62 0.68 0.66 0.66 0.68 0.70 0.71
0.34 0.26 0.24 0.19 0.19 0.17 0.19 0.19 0.27 0.33 0.26 0.24 0.27 0.26 0.25 0.20 0.18 0.19 0.20 0.23 0.24 0.26 0.36 0.47 0.40 0.37 0.35 0.33 0.32 0.28 0.31 0.36 0.39 0.45 0.43 0.46 0.49 0.52 0.55 0.57 0.56 0.57 0.63 0.68
0.27 0.20 0.16 0.16 0.17 0.16 0.16 0.17 0.22 0.27 0.25 0.26 0.32 0.30 0.23 0.23 0.23 0.20 0.25 0.29 0.33 0.36 0.36 0.39 0.37 0.37 0.31 0.29 0.28 0.27 0.28 0.33 0.36 0.37 0.39 0.42 0.42 0.47 0.46 0.47 0.50 0.56 0.57 0.59

GFSNGP_prec_precacc_285.txt.gz
Total_Precipitation_Accumulation
0.92 0.40 0.48 0.78 0.79 0.81 1.49 1.30 1.68 1.12 0.71 0.75 1.04 0.55 0.21 0.15 0.11 0.16 0.20 0.21 0.30 0.40 0.50 0.53 0.57 0.60 0.79 0.85 1.53 2.19 2.04 1.89 2.14 2.17 2.24 2.25 2.14 1.75 1.49 1.52 1.51 1.49 1.52 1.75
1.52 0.54 0.73 0.97 0.90 0.59 0.82 0.69 0.68 0.42 0.42 0.44 0.69 0.66 0.39 0.26 0.17 0.22 0.25 0.24 0.26 0.32 0.36 0.42 0.54 0.71 0.72 0.72 1.17 1.67 1.98 2.38 2.03 2.39 2.40 1.96 1.99 1.79 1.61 1.54 1.49 1.62 1.46 1.59
2.18 0.69 0.99 1.70 0.88 0.62 0.53 0.30 0.26 0.34 0.27 0.38 0.66 0.76 0.67 0.49 0.30 0.30 0.28 0.25 0.20 0.27 0.30 0.37 0.41 0.34 0.40 0.50 0.64 0.85 1.58 2.59 2.57 2.85 3.86 2.89 2.01 1.99 1.94 2.18 2.05 1.87 2.03 1.98
2.51 1.28 2.36 1.63 0.46 0.44 0.52 0.40 0.19 0.24 0.28 0.48 0.57 0.47 0.64 0.62 0.61 0.40 0.34 0.30 0.22 0.22 0.29 0.32 0.28 0.23 0.20 0.21 0.30 0.39 0.44 1.07 2.19 2.52 3.37 4.25 3.28 2.73 2.83 2.64 2.62 2.27 2.14 2.11
2.45 1.75 1.37 0.43 0.32 0.40 0.87 0.79 0.41 0.40 0.54 0.55 0.41 0.23 0.59 0.63 0.62 0.86 0.67 0.51 0.56 0.43 0.36 0.36 0.34 0.39 0.32 0.25 0.24 0.27 0.30 0.54 0.90 1.47 2.28 2.97 3.69 3.85 3.58 3.48 3.09 2.86 2.41 2.20
2.63 2.13 1.26 0.29 0.13 0.28 0.61 1.50 1.02 0.77 0.54 0.47 0.39 0.51 0.79 0.77 0.63 0.72 1.02 0.81 0.60 0.56 0.37 0.49 0.56 0.51 0.72 0.50 0.39 0.43 0.47 0.48 0.57 0.78 1.11 1.67 2.31 2.69 2.68 2.52 2.65 2.56 2.56 2.26
2.22 2.09 0.67 0.11 0.09 0.22 1.43 1.60 1.11 1.34 0.90 0.79 0.79 0.84 0.93 0.96 0.85 0.69 0.89 1.28 0.93 0.77 0.62 0.65 0.84 0.64 0.76 1.24 1.12 0.93 0.89 0.86 0.92 0.99 1.04 1.16 1.44 1.64 1.72 1.82 1.84 1.83 1.86 1.82
2.16 2.55 1.13 0.33 0.48 1.02 1.37 1.24 1.18 1.27 1.40 1.61 1.52 1.42 1.28 1.05 0.74 0.62 0.57 0.78 1.28 1.12 1.04 0.90 0.97 1.04 0.90 1.16 1.75 1.65 1.38 1.32 1.26 1.12 1.25 1.48 1.64 1.74 1.68 1.68 1.62 1.47 1.39 1.42
1.71 1.41 0.74 0.40 0.52 0.98 1.01 1.07 1.06 1.10 1.21 1.45 1.36 1.18 0.97 0.60 0.40 0.37 0.45 0.48 0.60 1.02 1.18 1.05 0.87 1.08 1.17 1.25 1.40 1.62 1.67 1.66 1.70 1.72 1.80 1.92 2.00 1.99 1.91 1.83 1.61 1.50 1.37 1.42
1.20 1.12 0.58 0.44 0.40 0.48 0.56 0.74 0.83 0.77 0.74 0.66 0.67 0.68 0.63 0.46 0.31 0.24 0.27 0.32 0.37 0.47 0.78 1.00 1.09 1.00 1.08 1.31 1.30 1.32 1.49 1.60 1.74 1.92 2.09 2.10 2.06 2.14 2.03 2.01 1.95 1.80 1.68 1.75
1.32 1.65 0.83 0.71 0.84 0.83 0.64 0.62 0.52 0.48 0.45 0.42 0.45 0.46 0.37 0.36 0.32 0.31 0.32 0.36 0.48 0.57 0.59 0.76 0.81 0.94 1.19 1.39 1.49 1.41 1.38 1.70 1.81 1.71 1.72 1.85 1.95 1.93 1.77 1.97 1.84 1.71 1.66 1.64
1.49 1.46 1.43 1.41 1.14 0.84 0.77 0.65 0.46 0.28 0.25 0.28 0.26 0.23 0.16 0.14 0.11 0.15 0.23 0.23 0.20 0.31 0.52 0.69 0.64 0.63 0.72 0.88 1.18 1.48 1.77 1.85 2.19 2.29 2.00 1.86 1.91 2.18 2.32 2.27 2.25 2.02 1.80 1.59
1.10 1.03 0.87 0.84 0.71 0.59 0.55 0.52 0.56 0.54 0.36 0.25 0.14 0.07 0.09 0.13 0.23 0.31 0.18 0.09 0.10 0.22 0.40 0.55 0.63 0.66 0.60 0.59 0.63 0.68 0.89 1.16 1.61 2.01 2.11 1.90 1.85 1.87 2.04 2.49 2.40 2.26 2.24 2.22
0.69 0.69 0.67 0.49 0.38 0.33 0.33 0.41 0.52 0.54 0.59 0.60 0.41 0.26 0.31 0.44 0.39 0.28 0.22 0.15 0.16 0.27 0.42 0.51 0.60 0.76 0.76 0.70 0.67 0.69 0.78 1.04 1.05 1.11 1.28 1.56 1.65 1.69 1.57 1.64 1.69 1.84 1.80 1.45
0.27 0.24 0.32 0.22 0.18 0.14 0.10 0.11 0.23 0.50 0.63 0.83 1.11 1.18 0.84 0.60 0.44 0.42 0.38 0.32 0.28 0.30 0.37 0.39 0.47 0.61 0.61 0.59 0.67 0.75 0.78 0.89 1.03 1.15 1.26 1.37 1.25 1.33 1.44 1.42 1.43 1.51 1.43 1.39
0.11 0.09 0.08 0.07 0.14 0.27 0.27 0.16 0.20 0.50 0.77 0.81 0.75 0.75 0.75 0.69 0.64 0.55 0.51 0.45 0.47 0.50 0.52 0.48 0.52 0.65 0.64 0.69 0.87 1.09 1.26 1.58 1.41 1.26 1.31 1.27 1.16 1.10 1.12 1.15 1.16 1.11 1.04 1.04
0.24 0.17 0.13 0.13 0.15 0.21 0.36 0.35 0.47 0.53 0.53 0.56 0.69 0.72 0.63 0.72 0.86 0.87 0.74 0.64 0.55 0.57 0.59 0.73 1.07 1.13 1.25 1.32 1.21 1.17 1.13 1.25 1.38 1.22 1.06 0.95 0.91 0.88 0.85 0.84 0.83 0.82 0.85 0.76
0.28 0.51 0.35 0.30 0.24 0.36 0.43 0.50 0.56 0.58 0.77 0.78 0.66 0.88 0.88 0.80 0.91 1.13 1.23 1.12 1.21 1.51 1.72 1.66 1.64 1.56 1.51 1.52 1.32 1.08 0.90 0.89 0.88 1.04 1.20 1.05 0.92 0.80 0.82 0.85 0.84 0.83 0.91 1.07
0.31 0.51 0.40 0.45 0.40 0.43 0.40 0.38 0.54 0.71 1.00 0.85 0.85 0.97 1.07 1.27 1.44 1.70 1.90 1.73 1.73 1.75 2.31 1.94 1.58 1.27 1.22 1.41 1.17 1.04 0.84 0.73 0.68 0.72 0.90 1.18 1.17 0.97 1.00 1.03 1.07 1.12 1.16 1.27
0.69 0.60 0.58 0.48 0.43 0.42 0.49 0.75 0.90 1.09 1.23 1.05 0.99 0.99 1.12 1.43 1.54 1.58 1.46 1.49 1.45 1.35 1.29 1.09 1.00 0.96 1.07 1.19 0.94 0.84 0.80 0.70 0.63 0.65 0.76 1.02 1.14 1.15 1.08 1.05 1.06 1.14 1.22 1.21
0.68 0.74 0.82 0.82 0.95 1.06 1.09 1.36 1.38 1.33 1.37 1.18 0.86 0.91 0.90 1.01 0.96 0.98 0.78 0.90 1.25 0.91 0.75 0.67 0.53 0.56 0.61 0.81 0.88 0.79 0.81 0.79 0.78 0.74 0.77 0.79 1.04 1.11 1.12 1.08 1.06 1.05 1.08 1.02
0.84 0.88 1.10 1.19 1.07 1.20 1.25 1.25 1.27 1.26 1.29 1.05 0.79 0.69 0.59 0.66 0.62 0.61 0.63 0.68 0.89 0.62 0.48 0.45 0.42 0.41 0.44 0.53 0.57 0.71 0.74 0.73 0.72 0.65 0.75 0.79 0.90 1.05 1.11 0.99 0.98 1.00 0.92 0.94
0.88 0.86 0.85 0.91 0.99 1.15 1.01 0.93 1.19 1.33 1.21 1.04 0.70 0.64 0.56 0.53 0.47 0.38 0.52 0.61 0.47 0.46 0.41 0.48 0.47 0.41 0.41 0.41 0.45 0.53 0.66 0.75 0.81 0.79 0.80 0.79 0.83 0.92 1.03 1.01 0.88 0.85 0.94 0.89
0.69 0.69 0.69 0.75 0.68 0.59 0.66 0.91 0.90 1.01 0.96 0.69 0.38 0.34 0.29 0.29 0.38 0.34 0.33 0.38 0.37 0.37 0.38 0.40 0.34 0.33 0.30 0.39 0.46 0.50 0.55 0.60 0.62 0.66 0.68 0.68 0.72 0.73 0.77 0.83 0.79 0.69 0.77 0.77
0.49 0.46 0.44 0.41 0.32 0.38 0.40 0.47 0.49 0.61 0.48 0.30 0.23 0.20 0.16 0.15 0.27 0.30 0.22 0.25 0.29 0.28 0.39 0.43 0.36 0.37 0.41 0.43 0.42 0.42 0.47 0.48 0.45 0.44 0.49 0.54 0.59 0.62 0.68 0.66 0.66 0.68 0.71 0.72
0.34 0.26 0.24 0.19 0.19 0.17 0.19 0.19 0.27 0.33 0.26 0.24 0.27 0.26 0.25 0.20 0.18 0.19 0.20 0.23 0.24 0.26 0.36 0.47 0.40 0.37 0.35 0.33 0.32 0.28 0.31 0.36 0.39 0.45 0.43 0.46 0.49 0.52 0.56 0.57 0.56 0.57 0.64 0.69
0.27 0.21 0.16 0.16 0.17 0.16 0.16 0.17 0.22 0.27 0.25 0.26 0.32 0.30 0.23 0.23 0.23 0.20 0.25 0.29 0.33 0.36 0.36 0.39 0.37 0.37 0.31 0.29 0.28 0.27 0.28 0.33 0.36 0.37 0.39 0.42 0.42 0.47 0.46 0.47 0.50 0.56 0.58 0.59

GFSNGP_prec_precacc_288.txt.gz
Total_Precipitation_Accumulation
0.92 0.40 0.48 0.78 0.79 0.81 1.49 1.30 1.68 1.12 0.71 0.75 1.04 0.55 0.21 0.15 0.11 0.16 0.20 0.21 0.30 0.40 0.50 0.53 0.57 0.60 0.79 0.85 1.53 2.19 2.04 1.89 2.14 2.17 2.24 2.25 2.14 1.75 1.49 1.52 1.51 1.49 1.52 1.75
1.52 0.54 0.73 0.97 0.90 0.59 0.82 0.69 0.68 0.42 0.42 0.44 0.69 0.66 0.39 0.26 0.17 0.22 0.25 0.24 0.26 0.32 0.36 0.42 0.54 0.71 0.72 0.72 1.17 1.67 1.98 2.38 2.03 2.39 2.40 1.96 1.99 1.79 1.61 1.54 1.49 1.62 1.46 1.59
2.18 0.69 0.99 1.70 0.88 0.62 0.53 0.30 0.26 0.34 0.27 0.38 0.66 0.76 0.67 0.49 0.30 0.30 0.28 0.25 0.20 0.27 0.30 0.37 0.41 0.34 0.40 0.50 0.64 0.85 1.58 2.59 2.57 2.85 3.86 2.89 2.01 1.99 1.94 2.18 2.05 1.87 2.03 1.98
2.51 1.28 2.36 1.63 0.46 0.44 0.52 0.40 0.19 0.24 0.28 0.48 0.57 0.47 0.64 0.62 0.61 0.40 0.34 0.30 0.22 0.22 0.29 0.32 0.28 0.23 0.20 0.21 0.30 0.39 0.44 1.07 2.19 2.52 3.37 4.25 3.28 2.73 2.83 2.64 2.62 2.27 2.14 2.11
2.45 1.75 1.37 0.43 0.32 0.40 0.87 0.79 0.41 0.40 0.54 0.55 0.41 0.23 0.59 0.63 0.62 0.86 0.67 0.51 0.56 0.43 0.36 0.36 0.34 0.39 0.32 0.25 0.24 0.27 0.30 0.54 0.90 1.47 2.28 2.97 3.69 3.85 3.58 3.48 3.09 2.86 2.41 2.20
2.63 2.13 1.26 0.29 0.13 0.28 0.61 1.50 1.02 0.77 0.54 0.47 0.39 0.51 0.79 0.77 0.63 0.72 1.02 0.81 0.60 0.56 0.37 0.49 0.56 0.51 0.72 0.50 0.39 0.43 0.47 0.48 0.57 0.78 1.11 1.67 2.31 2.69 2.68 2.52 2.65 2.56 2.56 2.26
2.22 2.09 0.67 0.11 0.09 0.22 1.43 1.60 1.11 1.34 0.90 0.79 0.79 0.84 0.93 0.96 0.85 0.69 0.89 1.28 0.93 0.77 0.62 0.65 0.84 0.64 0.76 1.24 1.12 0.93 0.89 0.86 0.92 0.99 1.04 1.16 1.44 1.64 1.72 1.82 1.84 1.83 1.86 1.82
2.17 2.55 1.13 0.33 0.48 1.02 1.37 1.24 1.18 1.27 1.40 1.61 1.52 1.42 1.28 1.05 0.74 0.62 0.57 0.78 1.28 1.12 1.04 0.90 0.97 1.04 0.90 1.16 1.75 1.65 1.38 1.32 1.26 1.12 1.25 1.48 1.64 1.74 1.68 1.68 1.62 1.47 1.39 1.42
1.71 1.41 0.74 0.40 0.52 0.98 1.01 1.07 1.06 1.10 1.21 1.45 1.36 1.18 0.97 0.60 0.40 0.37 0.45 0.48 0.60 1.02 1.18 1.05 0.87 1.08 1.17 1.25 1.40 1.62 1.67 1.66 1.70 1.72 1.80 1.92 2.00 1.99 1.91 1.83 1.61 1.50 1.37 1.42
1.20 1.12 0.58 0.44 0.40 0.48 0.56 0.74 0.83 0.77 0.74 0.66 0.67 0.68 0.63 0.46 0.31 0.24 0.27 0.32 0.37 0.47 0.78 1.00 1.09 1.00 1.08 1.31 1.30 1.32 1.49 1.60 1.74 1.92 2.09 2.10 2.06 2.14 2.03 2.01 1.95 1.80 1.68 1.75
1.32 1.65 0.83 0.71 0.84 0.83 0.64 0.62 0.52 0.48 0.45 0.42 0.45 0.46 0.37 0.36 0.32 0.31 0.32 0.36 0.48 0.57 0.59 0.76 0.81 0.94 1.19 1.39 1.49 1.41 1.38 1.70 1.81 1.71 1.72 1.85 1.95 1.93 1.77 1.97 1.84 1.71 1.66 1.64
1.50 1.46 1.43 1.41 1.14 0.84 0.77 0.65 0.46 0.28 0.25 0.28 0.26 0.23 0.16 0.14 0.11 0.15 0.23 0.23 0.20 0.31 0.52 0.69 0.64 0.63 0.72 0.88 1.18 1.48 1.77 1.85 2.19 2.29 2.00 1.86 1.91 2.18 2.32 2.27 2.25 2.02 1.80 1.59
1.10 1.03 0.87 0.84 0.71 0.59 0.55 0.52 0.56 0.54 0.36 0.25 0.14 0.07 0.09 0.13 0.23 0.31 0.18 0.09 0.10 0.22 0.40 0.55 0.63 0.66 0.60 0.59 0.63 0.68 0.89 1.16 1.61 2.01 2.11 1.90 1.85 1.87 2.04 2.49 2.40 2.26 2.24 2.22
0.69 0.69 0.67 0.49 0.38 0.33 0.33 0.41 0.52 0.54 0.59 0.60 0.41 0.26 0.31 0.44 0.39 0.28 0.22 0.15 0.16 0.27 0.42 0.51 0.60 0.76 0.76 0.70 0.67 0.69 0.78 1.04 1.05 1.11 1.28 1.56 1.65 1.69 1.57 1.64 1.69 1.84 1.80 1.45
0.27 0.24 0.32 0.22 0.18 0.14 0.10 0.11 0.23 0.50 0.63 0.83 1.11 1.18 0.84 0.60 0.44 0.42 0.38 0.32 0.28 0.30 0.37 0.39 0.47 0.61 0.61 0.59 0.67 0.75 0.78 0.89 1.03 1.15 1.26 1.37 1.25 1.33 1.44 1.42 1.43 1.51 1.43 1.39
0.11 0.09 0.08 0.07 0.14 0.27 0.27 0.16 0.20 0.50 0.77 0.81 0.75 0.75 0.75 0.69 0.64 0.55 0.51 0.45 0.47 0.50 0.52 0.48 0.52 0.65 0.64 0.69 0.87 1.09 1.26 1.58 1.41 1.26 1.31 1.27 1.16 1.10 1.12 1.15 1.16 1.11 1.04 1.04
0.24 0.17 0.13 0.13 0.15 0.21 0.36 0.35 0.47 0.53 0.53 0.56 0.69 0.72 0.63 0.72 0.86 0.87 0.74 0.64 0.55 0.57 0.59 0.73 1.07 1.13 1.25 1.32 1.21 1.17 1.13 1.25 1.38 1.22 1.06 0.95 0.91 0.88 0.85 0.84 0.83 0.82 0.85 0.76
0.28 0.51 0.35 0.30 0.24 0.36 0.43 0.50 0.56 0.58 0.77 0.78 0.66 0.88 0.88 0.80 0.91 1.13 1.23 1.12 1.21 1.51 1.72 1.66 1.64 1.56 1.51 1.52 1.32 1.08 0.90 0.89 0.88 1.04 1.20 1.05 0.92 0.80 0.82 0.85 0.84 0.83 0.91 1.07
0.31 0.51 0.40 0.45 0.40 0.43 0.40 0.38 0.54 0.71 1.00 0.85 0.85 0.97 1.07 1.27 1.44 1.70 1.90 1.73 1.73 1.75 2.32 1.94 1.58 1.27 1.22 1.41 1.17 1.04 0.84 0.73 0.68 0.72 0.90 1.18 1.17 0.97 1.00 1.03 1.07 1.12 1.16 1.27
0.69 0.60 0.58 0.48 0.43 0.42 0.49 0.75 0.90 1.09 1.23 1.05 0.99 0.99 1.12 1.43 1.54 1.58 1.46 1.49 1.45 1.35 1.29 1.09 1.00 0.96 1.07 1.19 0.94 0.84 0.80 0.70 0.63 0.65 0.76 1.02 1.14 1.15 1.08 1.05 1.06 1.14 1.22 1.21
0.68 0.74 0.82 0.82 0.95 1.06 1.09 1.36 1.38 1.33 1.37 1.18 0.86 0.91 0.90 1.01 0.96 0.98 0.78 0.90 1.25 0.91 0.75 0.67 0.53 0.56 0.61 0.81 0.88 0.79 0.81 0.79 0.78 0.74 0.77 0.79 1.04 1.11 1.12 1.09 1.06 1.05 1.08 1.03
0.84 0.88 1.10 1.19 1.07 1.20 1.25 1.25 1.27 1.26 1.29 1.05 0.79 0.69 0.59 0.66 0.62 0.61 0.63 0.68 0.89 0.62 0.48 0.45 0.42 0.41 0.44 0.53 0.57 0.71 0.74 0.73 0.72 0.65 0.75 0.79 0.90 1.06 1.11 0.99 0.98 1.01 0.92 0.95
0.88 0.86 0.85 0.91 0.99 1.15 1.01 0.93 1.19 1.33 1.21 1.04 0.70 0.64 0.56 0.53 0.47 0.38 0.52 0.61 0.47 0.46 0.41 0.48 0.47 0.41 0.41 0.41 0.45 0.53 0.66 0.75 0.81 0.79 0.80 0.79 0.83 0.92 1.03 1.01 0.88 0.85 0.94 0.90
0.69 0.69 0.69 0.75 0.68 0.59 0.66 0.91 0.90 1.01 0.96 0.69 0.38 0.34 0.29 0.29 0.38 0.34 0.33 0.38 0.37 0.37 0.38 0.40 0.34 0.33 0.30 0.39 0.46 0.50 0.55 0.60 0.62 0.66 0.68 0.68 0.72 0.73 0.77 0.83 0.79 0.69 0.77 0.77
0.49 0.46 0.44 0.41 0.32 0.38 0.40 0.48 0.49 0.61 0.48 0.30 0.23 0.20 0.16 0.15 0.27 0.30 0.22 0.25 0.29 0.28 0.39 0.43 0.36 0.37 0.41 0.43 0.42 0.42 0.47 0.48 0.45 0.44 0.49 0.54 0.59 0.62 0.68 0.66 0.66 0.68 0.71 0.72
0.34 0.26 0.24 0.19 0.19 0.17 0.19 0.19 0.27 0.34 0.26 0.24 0.27 0.26 0.25 0.20 0.18 0.19 0.20 0.23 0.24 0.26 0.36 0.47 0.40 0.37 0.35 0.33 0.32 0.28 0.31 0.36 0.39 0.45 0.43 0.46 0.49 0.52 0.56 0.57 0.57 0.58 0.64 0.69
0.27 0.21 0.19 0.19 0.20 0.17 0.17 0.17 0.22 0.27 0.25 0.26 0.32 0.30 0.23 0.23 0.23 0.20 0.25 0.29 0.33 0.36 0.36 0.39 0.37 0.37 0.31 0.29 0.28 0.27 0.28 0.33 0.36 0.37 0.39 0.42 0.42 0.47 0.46 0.47 0.50 0.56 0.58 0.59